This is the latest recevied weather packets stored in our database for station/object SV9TNF-51. If no packets are shown the sender has not sent any weather packets the latest 10 day(s).
| Time | Temp. | Humidity | Pressure | Rain* | Wind** | Luminosity | Snow |
|---|---|---|---|---|---|---|---|
| 1788667381 | 25° C | 46% | 1013.6 hPa | 0 mm | 4.92 m/s, 326° | - | - |
| 1788667081 | 24.44° C | 45% | 1013.6 hPa | 0 mm | 4.92 m/s, 14° | - | - |
| 1788666781 | 24.44° C | 47% | 1013.6 hPa | 0 mm | 5.81 m/s, 347° | - | - |
| 1788666481 | 24.44° C | 46% | 1013.6 hPa | 0 mm | 3.58 m/s, 335° | - | - |
| 1788666181 | 24.44° C | 48% | 1013.6 hPa | 0 mm | 1.79 m/s, 90° | - | - |
| 1788665881 | 24.44° C | 49% | 1013.6 hPa | 0 mm | 3.13 m/s, 77° | - | - |
| 1788665580 | 24.44° C | 48% | 1013.6 hPa | 0 mm | 5.81 m/s, 351° | - | - |
| 1788665281 | 23.89° C | 42% | 1013.6 hPa | 0 mm | 5.81 m/s, 309° | - | - |
| 1788664980 | 23.89° C | 43% | 1013.2 hPa | 0 mm | 4.92 m/s, 327° | - | - |
| 1788664680 | 24.44° C | 45% | 1013.2 hPa | 0 mm | 6.26 m/s, 343° | - | - |
| 1788664380 | 24.44° C | 42% | 1013.2 hPa | 0 mm | 4.47 m/s, 337° | - | - |
| 1788664080 | 24.44° C | 42% | 1013.2 hPa | 0 mm | 5.36 m/s, 314° | - | - |
| 1788663780 | 24.44° C | 42% | 1013.2 hPa | 0 mm | 5.81 m/s, 346° | - | - |
| 1788663480 | 24.44° C | 43% | 1013.2 hPa | 0 mm | 5.81 m/s, 332° | - | - |
| 1788663180 | 24.44° C | 44% | 1013.2 hPa | 0 mm | 6.71 m/s, 338° | - | - |
| 1788662887 | 24.44° C | 43% | 1013.6 hPa | 0 mm | 5.81 m/s, 335° | - | - |
| 1788662580 | 23.89° C | 44% | 1013.6 hPa | 0 mm | 7.15 m/s, 334° | - | - |
| 1788662279 | 23.89° C | 48% | 1013.6 hPa | 0 mm | 4.47 m/s, 326° | - | - |
| 1788661979 | 24.44° C | 50% | 1013.2 hPa | 0 mm | 1.34 m/s, 120° | - | - |
| 1788661679 | 24.44° C | 49% | 1013.2 hPa | 0 mm | 2.24 m/s, 118° | - | - |
| 1788661379 | 24.44° C | 48% | 1013.2 hPa | 0 mm | 3.58 m/s, 26° | - | - |
| 1788661079 | 25° C | 47% | 1013.2 hPa | 0 mm | 4.47 m/s, 355° | - | - |
| 1788660779 | 25° C | 47% | 1013.2 hPa | 0 mm | 6.26 m/s, 331° | - | - |
| 1788660479 | 24.44° C | 46% | 1013.6 hPa | 0 mm | 7.15 m/s, 332° | - | - |
| 1788660179 | 24.44° C | 47% | 1013.6 hPa | 0 mm | 8.05 m/s, 353° | - | - |
* Rain latest hour (hover to see other rain measurements)
** Current wind speed in m/s (hover to see current wind gust speed)